SCP
0 0 0 0 0 0 0 0 0 -0 -0 0 0 0 0 0 0 0 0 0 0 0 0 0 0 0 1 1 1 1 1 0 0 0 0 0 0 0
0 0 0 0 0 0 0 0 0 0 -0 0 0 0 0 1 0 0 0 0 0 0 0 0 0 0 0 0 0 0 0 0 0 0 0 0 0 0
0 0 1 0 0 0 0 -0 -0 0 0 -0 0 0 0 0 1 1 1 1 0 0 0 0 0 0 0 0 0 0 0 0 0 0 0 0 0 0
1 1 1 0 0 0 0 -0 -0 -0 0 0 0 0 0 0 0 0 1 0 1 1 0 0 0 0 0 0 0 0 0 0 0 0 0 0 0 0
1 1 1 0 0 0 -0 -0 -0 -0 -0 0 0 0 0 0 0 0 0 0 1 0 0 0 0 0 0 0 0 0 0 0 0 0 0 0 0 0
1 1 1 0 0 0 0 0 -0 -0 -0 -0 0 0 0 0 0 0 0 1 1 1 1 0 0 0 0 0 0 0 0 0 0 0 0 0 0 0
1 1 0 0 0 0 0 0 0 -0 -0 0 0 -0 -0 0 0 0 0 0 1 1 0 1 0 0 0 0 0 0 0 0 0 0 0 0 0 0
1 1 0 0 0 0 0 0 0 0 -0 0 0 -0 -0 0 0 0 0 0 0 0 0 0 1 1 1 0 0 0 0 0 0 0 0 0 0 0
1 1 0 0 0 0 0 0 0 0 -0 -0 0 0 -0 -0 0 0 0 0 0 0 1 1 1 1 1 1 0 0 0 0 0 0 0 0 0 0
0 0 0 0 0 0 0 0 0 0 -0 -0 -0 -0 0 0 0 0 0 0 0 1 1 0 1 1 1 1 0 0 0 0 0 0 0 0 0 0
0 0 0 0 0 0 0 0 0 0 -0 0 0 0 0 0 0 0 0 0 0 0 1 0 1 0 0 0 0 0 0 0 0 0 0 0 0 0
0 0 0 0 0 0 0 0 -0 -0 -0 0 0 0 0 0 -0 0 0 0 0 0 0 0 1 0 0 0 0 0 0 0 0 0 0 0 0 0
0 0 0 0 0 0 0 -0 -0 -0 -0 0 0 0 0 0 0 0 0 0 0 0 0 1 0 1 0 1 1 0 0 0 0 0 0 0 0 0
0 0 0 0 0 0 0 0 -0 -0 -0 0 0 0 0 0 0 0 0 0 0 0 0 0 1 0 0 0 0 1 0 0 0 0 0 0 0 0
0 0 0 0 0 0 0 0 -0 -0 0 0 0 0 0 0 0 0 0 0 0 0 0 0 1 0 1 0 1 1 1 0 0 0 0 0 0 0
0 0 0 0 0 0 0 0 -0 -0 -0 -0 0 0 0 0 0 0 0 0 0 0 0 0 0 1 0 0 0 0 1 1 1 0 0 0 0 0
0 0 0 0 0 0 0 0 0 -0 -0 0 -0 0 0 0 0 0 0 0 0 0 0 0 0 0 0 0 0 0 0 0 0 0 0 0 0 0
0 0 0 0 0 0 0 0 0 0 -0 -0 0 0 -0 0 0 0 0 0 0 0 0 0 0 0 0 0 0 0 0 0 0 0 0 0 0 0
0 0 0 0 0 0 0 0 0 0 -0 0 0 -0 -0 -0 0 0 0 0 0 0 0 0 0 0 0 0 0 0 0 0 0 0 0 0 0 0
0 0 0 0 0 0 0 0 0 0 0 0 0 -0 -0 -0 -0 -0 0 0 0 0 0 0 0 0 0 0 0 0 0 0 0 0 0 0 0 0
0 0 0 0 0 0 0 0 0 0 0 0 0 0 0 -0 0 -0 -0 -0 -0 0 0 0 0 0 0 0 0 0 0 0 0 0 0 0 0 0
0 0 0 0 0 0 0 0 0 0 0 0 0 0 0 0 0 -0 0 -0 -0 -0 -0 -0 0 0 0 0 0 0 0 0 0 0 0 0 0 0
0 0 0 0 0 0 0 0 0 0 0 0 0 0 0 0 0 0 0 -0 0 0 -0 -0 -0 -0 -0 0 0 0 0 0 0 0 0 0 0 0
Wind_Speed_500mb
27 31 36 35 34 43 47 54 63 73 82 84 64 74 64 63 68 62 77 64 66 77 69 67 70 73 71 69 71 72 69 67 65 62 59 56 54 53
34 38 34 38 40 42 50 55 63 71 87 86 80 71 73 63 66 60 75 81 74 82 77 69 68 70 69 74 72 71 71 69 67 66 63 61 59 56
40 33 35 41 39 51 54 58 68 65 79 94 81 76 73 73 69 69 66 80 72 67 73 70 68 70 67 69 74 76 77 76 75 72 70 66 63 62
38 32 37 41 37 48 58 65 62 67 72 79 76 77 76 76 68 77 82 74 88 76 71 74 67 67 69 69 70 71 71 71 70 69 69 66 63 60
39 36 38 40 36 45 58 71 70 67 78 61 61 71 75 75 70 63 70 71 65 87 70 67 52 55 57 65 68 69 69 66 63 61 61 59 58 58
45 48 41 44 40 49 61 71 81 75 68 76 65 59 63 72 74 72 68 65 67 69 69 63 65 67 60 60 67 64 61 60 57 56 55 55 56 56
53 50 41 42 52 56 64 70 76 89 77 81 75 72 73 71 74 72 75 71 70 73 72 71 65 72 65 64 64 65 61 58 55 52 51 51 53 55
55 54 48 46 49 59 60 62 71 82 83 84 82 75 78 75 72 73 73 72 68 67 74 67 66 67 60 64 62 61 60 55 50 48 50 53 55 56
53 54 52 47 44 47 59 64 78 88 81 82 85 80 79 84 78 78 77 79 84 84 68 72 74 71 70 64 58 64 63 59 56 54 52 54 56 56
49 50 44 45 47 50 58 66 84 89 81 87 85 87 82 80 75 76 75 76 73 65 67 70 80 84 74 68 58 46 53 53 52 54 57 57 53 52
52 47 45 46 44 48 58 66 80 96 94 96 80 75 86 86 77 76 83 74 76 72 70 67 69 70 58 62 68 61 57 60 62 61 57 55 53 51
47 47 45 42 44 54 51 66 76 92 95 103 98 54 51 73 91 85 82 72 85 66 75 77 78 71 71 88 76 58 67 64 64 62 56 52 52 52
49 45 37 45 54 50 53 62 64 78 84 97 102 61 24 39 69 89 86 76 76 79 57 71 74 68 68 44 66 75 74 70 67 63 60 58 54 53
44 33 38 46 49 51 51 41 59 77 73 90 101 99 28 25 40 75 83 84 80 74 73 61 57 67 77 75 64 54 62 71 68 64 53 54 55 52
30 28 34 39 47 51 38 32 49 64 80 77 85 96 75 11 38 53 57 79 80 74 70 60 65 53 59 63 67 65 62 69 60 59 54 51 52 51
29 25 16 34 49 37 28 21 29 51 63 67 79 90 102 38 11 35 48 54 64 78 70 59 62 57 58 58 65 72 55 68 65 56 50 43 42 49
24 20 15 33 47 38 31 24 23 34 52 62 68 77 99 98 58 17 19 41 58 64 68 69 67 61 64 54 52 53 76 58 50 52 49 49 42 44
20 16 18 29 40 37 34 33 30 33 36 43 54 68 74 85 92 82 57 20 17 47 62 48 52 61 51 53 51 50 39 55 54 56 61 41 30 25
10 13 24 26 30 28 30 30 34 36 41 33 43 53 51 55 79 85 90 79 80 54 19 28 42 41 44 36 36 46 41 40 52 77 53 42 29 27
8 16 15 16 17 21 22 27 28 28 39 43 36 40 47 54 54 54 59 71 73 76 79 68 38 18 25 17 21 14 34 39 47 44 34 39 39 37
14 12 15 20 22 24 24 26 31 34 35 42 44 43 45 43 50 48 51 48 53 60 64 62 62 56 49 48 58 44 37 28 26 44 55 51 42 35
12 13 13 17 20 22 24 25 26 28 33 35 39 38 38 40 38 44 38 38 45 44 39 35 34 45 58 58 57 51 49 44 38 30 23 32 49 37
14 11 18 22 27 23 20 20 21 21 25 31 32 34 30 35 34 31 31 31 31 28 33 30 25 29 38 38 40 38 43 42 39 44 41 42 42 39
Wind_Direction_500mb
318 320 326 335 330 319 317 315 307 296 292 286 278 279 276 272 259 253 258 246 242 251 248 250 249 247 246 244 246 247 248 250 252 255 257 257 257 261
303 319 326 317 331 331 322 319 303 294 287 283 279 273 273 266 257 253 242 245 240 243 247 248 248 246 245 242 242 245 247 249 251 252 254 255 257 262
305 314 311 316 329 341 338 333 337 310 295 282 278 274 265 266 255 257 240 251 246 238 246 248 247 244 242 242 242 244 247 249 250 250 252 254 259 262
300 306 302 310 320 333 340 347 329 337 318 283 281 275 267 269 263 255 247 247 245 237 246 246 248 247 241 241 243 244 246 247 247 249 251 254 257 259
300 293 292 306 323 336 341 341 339 338 332 307 292 279 269 264 265 255 253 252 258 250 225 241 241 244 242 241 242 244 245 243 243 247 248 250 254 258
292 293 287 298 308 320 328 329 340 330 333 326 300 283 276 264 259 253 254 246 239 236 228 243 241 238 239 244 240 240 238 235 237 239 243 249 254 257
298 292 287 287 304 312 323 325 327 333 323 328 317 297 270 270 255 248 241 246 249 245 245 242 243 236 239 242 240 233 231 229 230 235 243 249 254 257
302 291 285 290 304 311 319 326 322 329 325 322 313 297 288 261 260 249 242 236 237 237 236 236 235 234 237 236 237 230 224 223 230 240 249 252 255 258
301 293 292 294 314 314 323 321 329 328 325 321 306 293 286 258 254 251 248 237 237 240 239 241 225 231 234 236 237 235 232 236 244 247 250 254 254 255
307 307 301 303 313 322 318 320 321 330 330 322 304 290 275 262 251 241 248 245 240 232 232 236 229 234 234 234 237 226 224 233 243 254 259 260 255 252
301 302 310 314 314 312 311 317 329 331 331 331 322 291 268 251 235 237 239 236 235 230 226 230 233 237 226 227 229 229 232 248 255 258 259 259 252 250
297 301 310 313 313 315 312 325 326 330 340 345 345 315 268 242 232 223 225 225 229 235 234 232 234 234 240 233 234 229 229 241 247 254 257 257 246 244
297 306 302 310 313 318 315 331 334 337 345 0 354 359 296 250 228 220 217 219 228 225 226 231 233 234 231 226 226 232 233 236 240 248 259 255 243 240
311 315 310 313 312 322 326 335 354 355 351 6 2 8 7 239 235 214 217 218 226 232 231 228 235 234 239 233 231 220 235 232 242 252 258 243 235 234
316 303 312 309 311 324 331 335 351 358 1 3 3 3 15 352 208 222 225 224 228 233 234 229 229 236 237 236 236 234 221 231 239 250 251 241 232 229
305 319 324 310 316 332 333 330 348 8 5 16 17 19 24 33 173 209 224 224 225 232 228 227 221 234 242 241 238 241 237 233 237 243 248 245 231 225
346 4 340 322 326 346 359 351 354 3 8 14 25 23 29 31 46 231 251 203 232 234 234 230 232 235 241 249 251 257 244 219 232 229 227 231 240 229
15 11 331 322 327 350 357 8 4 10 7 13 26 22 33 30 38 49 56 75 89 202 213 217 226 232 241 246 251 251 243 222 216 215 206 219 215 214
356 337 324 343 356 2 6 7 11 19 23 20 28 43 36 39 34 38 46 55 56 75 124 193 219 231 225 226 237 248 240 237 226 192 199 202 196 189
330 325 334 345 345 352 6 15 13 22 37 33 34 40 49 48 36 39 40 47 50 54 62 68 82 134 162 140 119 98 201 220 202 190 191 191 183 188
316 348 30 32 28 29 27 29 35 26 29 44 37 38 43 49 53 42 37 41 50 48 57 57 61 66 80 94 71 69 72 97 139 182 185 186 182 191
7 7 18 22 17 12 16 13 17 31 31 32 34 36 46 40 43 52 43 42 40 48 42 42 52 62 69 67 62 54 60 55 64 75 82 143 159 160
19 15 352 4 360 356 356 359 3 19 37 35 26 32 38 43 32 32 41 49 46 53 55 44 40 52 59 59 59 60 54 61 61 62 70 57 94 138
Wind_Speed_850mb
27 31 36 35 34 43 47 54 63 73 82 84 64 74 64 63 68 62 77 64 66 77 69 67 70 73 71 69 71 72 69 67 65 62 59 56 54 53
34 38 34 38 40 42 50 55 63 71 87 86 80 71 73 63 66 60 75 81 74 82 77 69 68 70 69 74 72 71 71 69 67 66 63 61 59 56
40 33 35 41 39 51 54 58 68 65 79 94 81 76 73 73 69 69 66 80 72 67 73 70 68 70 67 69 74 76 77 76 75 72 70 66 63 62
38 32 37 41 37 48 58 65 62 67 72 79 76 77 76 76 68 77 82 74 88 76 71 74 67 67 69 69 70 71 71 71 70 69 69 66 63 60
39 36 38 40 36 45 58 71 70 67 78 61 61 71 75 75 70 63 70 71 65 87 70 67 52 55 57 65 68 69 69 66 63 61 61 59 58 58
45 48 41 44 40 49 61 71 81 75 68 76 65 59 63 72 74 72 68 65 67 69 69 63 65 67 60 60 67 64 61 60 57 56 55 55 56 56
53 50 41 42 52 56 64 70 76 89 77 81 75 72 73 71 74 72 75 71 70 73 72 71 65 72 65 64 64 65 61 58 55 52 51 51 53 55
55 54 48 46 49 59 60 62 71 82 83 84 82 75 78 75 72 73 73 72 68 67 74 67 66 67 60 64 62 61 60 55 50 48 50 53 55 56
53 54 52 47 44 47 59 64 78 88 81 82 85 80 79 84 78 78 77 79 84 84 68 72 74 71 70 64 58 64 63 59 56 54 52 54 56 56
49 50 44 45 47 50 58 66 84 89 81 87 85 87 82 80 75 76 75 76 73 65 67 70 80 84 74 68 58 46 53 53 52 54 57 57 53 52
52 47 45 46 44 48 58 66 80 96 94 96 80 75 86 86 77 76 83 74 76 72 70 67 69 70 58 62 68 61 57 60 62 61 57 55 53 51
47 47 45 42 44 54 51 66 76 92 95 103 98 54 51 73 91 85 82 72 85 66 75 77 78 71 71 88 76 58 67 64 64 62 56 52 52 52
49 45 37 45 54 50 53 62 64 78 84 97 102 61 24 39 69 89 86 76 76 79 57 71 74 68 68 44 66 75 74 70 67 63 60 58 54 53
44 33 38 46 49 51 51 41 59 77 73 90 101 99 28 25 40 75 83 84 80 74 73 61 57 67 77 75 64 54 62 71 68 64 53 54 55 52
30 28 34 39 47 51 38 32 49 64 80 77 85 96 75 11 38 53 57 79 80 74 70 60 65 53 59 63 67 65 62 69 60 59 54 51 52 51
29 25 16 34 49 37 28 21 29 51 63 67 79 90 102 38 11 35 48 54 64 78 70 59 62 57 58 58 65 72 55 68 65 56 50 43 42 49
24 20 15 33 47 38 31 24 23 34 52 62 68 77 99 98 58 17 19 41 58 64 68 69 67 61 64 54 52 53 76 58 50 52 49 49 42 44
20 16 18 29 40 37 34 33 30 33 36 43 54 68 74 85 92 82 57 20 17 47 62 48 52 61 51 53 51 50 39 55 54 56 61 41 30 25
10 13 24 26 30 28 30 30 34 36 41 33 43 53 51 55 79 85 90 79 80 54 19 28 42 41 44 36 36 46 41 40 52 77 53 42 29 27
8 16 15 16 17 21 22 27 28 28 39 43 36 40 47 54 54 54 59 71 73 76 79 68 38 18 25 17 21 14 34 39 47 44 34 39 39 37
14 12 15 20 22 24 24 26 31 34 35 42 44 43 45 43 50 48 51 48 53 60 64 62 62 56 49 48 58 44 37 28 26 44 55 51 42 35
12 13 13 17 20 22 24 25 26 28 33 35 39 38 38 40 38 44 38 38 45 44 39 35 34 45 58 58 57 51 49 44 38 30 23 32 49 37
14 11 18 22 27 23 20 20 21 21 25 31 32 34 30 35 34 31 31 31 31 28 33 30 25 29 38 38 40 38 43 42 39 44 41 42 42 39
Wind_Direction_850mb
318 320 326 335 330 319 317 315 307 296 292 286 278 279 276 272 259 253 258 246 242 251 248 250 249 247 246 244 246 247 248 250 252 255 257 257 257 261
303 319 326 317 331 331 322 319 303 294 287 283 279 273 273 266 257 253 242 245 240 243 247 248 248 246 245 242 242 245 247 249 251 252 254 255 257 262
305 314 311 316 329 341 338 333 337 310 295 282 278 274 265 266 255 257 240 251 246 238 246 248 247 244 242 242 242 244 247 249 250 250 252 254 259 262
300 306 302 310 320 333 340 347 329 337 318 283 281 275 267 269 263 255 247 247 245 237 246 246 248 247 241 241 243 244 246 247 247 249 251 254 257 259
300 293 292 306 323 336 341 341 339 338 332 307 292 279 269 264 265 255 253 252 258 250 225 241 241 244 242 241 242 244 245 243 243 247 248 250 254 258
292 293 287 298 308 320 328 329 340 330 333 326 300 283 276 264 259 253 254 246 239 236 228 243 241 238 239 244 240 240 238 235 237 239 243 249 254 257
298 292 287 287 304 312 323 325 327 333 323 328 317 297 270 270 255 248 241 246 249 245 245 242 243 236 239 242 240 233 231 229 230 235 243 249 254 257
302 291 285 290 304 311 319 326 322 329 325 322 313 297 288 261 260 249 242 236 237 237 236 236 235 234 237 236 237 230 224 223 230 240 249 252 255 258
301 293 292 294 314 314 323 321 329 328 325 321 306 293 286 258 254 251 248 237 237 240 239 241 225 231 234 236 237 235 232 236 244 247 250 254 254 255
307 307 301 303 313 322 318 320 321 330 330 322 304 290 275 262 251 241 248 245 240 232 232 236 229 234 234 234 237 226 224 233 243 254 259 260 255 252
301 302 310 314 314 312 311 317 329 331 331 331 322 291 268 251 235 237 239 236 235 230 226 230 233 237 226 227 229 229 232 248 255 258 259 259 252 250
297 301 310 313 313 315 312 325 326 330 340 345 345 315 268 242 232 223 225 225 229 235 234 232 234 234 240 233 234 229 229 241 247 254 257 257 246 244
297 306 302 310 313 318 315 331 334 337 345 0 354 359 296 250 228 220 217 219 228 225 226 231 233 234 231 226 226 232 233 236 240 248 259 255 243 240
311 315 310 313 312 322 326 335 354 355 351 6 2 8 7 239 235 214 217 218 226 232 231 228 235 234 239 233 231 220 235 232 242 252 258 243 235 234
316 303 312 309 311 324 331 335 351 358 1 3 3 3 15 352 208 222 225 224 228 233 234 229 229 236 237 236 236 234 221 231 239 250 251 241 232 229
305 319 324 310 316 332 333 330 348 8 5 16 17 19 24 33 173 209 224 224 225 232 228 227 221 234 242 241 238 241 237 233 237 243 248 245 231 225
346 4 340 322 326 346 359 351 354 3 8 14 25 23 29 31 46 231 251 203 232 234 234 230 232 235 241 249 251 257 244 219 232 229 227 231 240 229
15 11 331 322 327 350 357 8 4 10 7 13 26 22 33 30 38 49 56 75 89 202 213 217 226 232 241 246 251 251 243 222 216 215 206 219 215 214
356 337 324 343 356 2 6 7 11 19 23 20 28 43 36 39 34 38 46 55 56 75 124 193 219 231 225 226 237 248 240 237 226 192 199 202 196 189
330 325 334 345 345 352 6 15 13 22 37 33 34 40 49 48 36 39 40 47 50 54 62 68 82 134 162 140 119 98 201 220 202 190 191 191 183 188
316 348 30 32 28 29 27 29 35 26 29 44 37 38 43 49 53 42 37 41 50 48 57 57 61 66 80 94 71 69 72 97 139 182 185 186 182 191
7 7 18 22 17 12 16 13 17 31 31 32 34 36 46 40 43 52 43 42 40 48 42 42 52 62 69 67 62 54 60 55 64 75 82 143 159 160
19 15 352 4 360 356 356 359 3 19 37 35 26 32 38 43 32 32 41 49 46 53 55 44 40 52 59 59 59 60 54 61 61 62 70 57 94 138